| time (UTC) | temp F | wind direction | speed MPH | gust MPH | rain 1hr in | rain 24hr in | rain mn in | humidity % | barometer mb |
| 20260506162005 | 48 | 185 | 12.0 | 13.0 | 0.00 | 0.00 | 0.00 | 65 | 1016.0 |
| 20260506161005 | 48 | 179 | 13.0 | 16.0 | 0.00 | 0.00 | 0.00 | 64 | 1015.9 |
| 20260506160005 | 48 | 191 | 12.0 | 16.0 | 0.00 | 0.00 | 0.00 | 63 | 1015.9 |
| 20260506154005 | 49 | 172 | 11.0 | 15.0 | 0.00 | 0.00 | 0.00 | 66 | 1015.9 |
| 20260506153005 | 49 | 167 | 14.0 | 17.0 | 0.00 | 0.00 | 0.00 | 65 | 1016.0 |
| 20260506152005 | 49 | 186 | 12.0 | 15.0 | 0.00 | 0.00 | 0.00 | 65 | 1016.2 |
| 20260506151006 | 51 | 175 | 10.0 | 13.0 | 0.00 | 0.00 | 0.00 | 63 | 1016.1 |
| 20260506150006 | 50 | 204 | 12.0 | 15.0 | 0.00 | 0.00 | 0.00 | 63 | 1016.0 |
| 20260506145006 | 50 | 175 | 11.0 | 14.0 | 0.00 | 0.00 | 0.00 | 63 | 1016.2 |
| 20260506144006 | 49 | 172 | 13.0 | 18.0 | 0.00 | 0.00 | 0.00 | 63 | 1016.1 |
| 20260506143006 | 50 | 175 | 12.0 | 15.0 | 0.00 | 0.00 | 0.00 | 65 | 1016.2 |
| 20260506142006 | 50 | 185 | 13.0 | 15.0 | 0.00 | 0.00 | 0.00 | 64 | 1015.9 |
| 20260506140005 | 50 | 149 | 11.0 | 16.0 | 0.00 | 0.00 | 0.00 | 58 | 1016.1 |
| 20260506135005 | 51 | 185 | 6.0 | 9.0 | 0.00 | 0.00 | 0.00 | 56 | 1016.3 |
| 20260506134005 | 50 | 191 | 10.0 | 16.0 | 0.00 | 0.00 | 0.00 | 55 | 1016.3 |
| 20260506132005 | 52 | 159 | 12.0 | 15.0 | 0.00 | 0.00 | 0.00 | 52 | 1016.2 |
| 20260506130006 | 51 | 163 | 10.0 | 14.0 | 0.00 | 0.00 | 0.00 | 57 | 1016.3 |
| 20260506125006 | 50 | 186 | 11.0 | 14.0 | 0.00 | 0.00 | 0.00 | 58 | 1016.5 |
| 20260506124006 | 50 | 174 | 14.0 | 15.0 | 0.00 | 0.00 | 0.00 | 62 | 1016.4 |
| 20260506123006 | 50 | 172 | 15.0 | 18.0 | 0.00 | 0.00 | 0.00 | 58 | 1016.6 |
| 20260506122006 | 50 | 179 | 16.0 | 20.0 | 0.00 | 0.00 | 0.00 | 56 | 1016.7 |
| 20260506121005 | 51 | 156 | 17.0 | 21.0 | 0.00 | 0.00 | 0.00 | 51 | 1016.7 |
| 20260506120005 | 50 | 162 | 15.0 | 18.0 | 0.00 | 0.00 | 0.00 | 56 | 1016.6 |
| 20260506114005 | 51 | 170 | 13.0 | 16.0 | 0.00 | 0.00 | 0.00 | 53 | 1016.9 |
| 20260506113005 | 51 | 187 | 14.0 | 17.0 | 0.00 | 0.00 | 0.00 | 55 | 1016.9 |
| 20260506112005 | 51 | 182 | 13.0 | 16.0 | 0.00 | 0.00 | 0.00 | 52 | 1016.7 |
| 20260506111005 | 51 | 174 | 15.0 | 18.0 | 0.00 | 0.00 | 0.00 | 51 | 1016.6 |
| 20260506110005 | 52 | 158 | 14.0 | 18.0 | 0.00 | 0.00 | 0.00 | 51 | 1016.8 |
| 20260506105005 | 51 | 182 | 12.0 | 14.0 | 0.00 | 0.00 | 0.00 | 50 | 1016.6 |
| 20260506104005 | 51 | 192 | 11.0 | 13.0 | 0.00 | 0.00 | 0.00 | 51 | 1016.9 |
| 20260506103006 | 51 | 202 | 12.0 | 18.0 | 0.00 | 0.00 | 0.00 | 50 | 1016.7 |
| 20260506102005 | 51 | 190 | 13.0 | 18.0 | 0.00 | 0.00 | 0.00 | 50 | 1016.6 |
| 20260506101005 | 44 | 226 | 2.0 | 7.0 | 0.00 | 0.00 | 0.00 | 65 | 1016.5 |
| 20260506100005 | 44 | 226 | 2.0 | 7.0 | 0.00 | 0.00 | 0.00 | 65 | 1016.5 |
| 20260506095005 | 44 | 226 | 2.0 | 7.0 | 0.00 | 0.00 | 0.00 | 65 | 1016.5 |
| 20260506093005 | 44 | 226 | 2.0 | 7.0 | 0.00 | 0.00 | 0.00 | 65 | 1016.5 |
| 20260506092005 | 44 | 226 | 2.0 | 7.0 | 0.00 | 0.00 | 0.00 | 65 | 1016.5 |
| 20260506091005 | 44 | 226 | 2.0 | 7.0 | 0.00 | 0.00 | 0.00 | 65 | 1016.5 |
| 20260506090005 | 44 | 226 | 2.0 | 7.0 | 0.00 | 0.00 | 0.00 | 65 | 1016.5 |
| 20260506085005 | 44 | 226 | 2.0 | 7.0 | 0.00 | 0.00 | 0.00 | 65 | 1016.5 |
| 20260506084005 | 44 | 226 | 2.0 | 7.0 | 0.00 | 0.00 | 0.00 | 65 | 1016.5 |
| 20260506083006 | 44 | 226 | 2.0 | 7.0 | 0.00 | 0.00 | 0.00 | 65 | 1016.5 |
| 20260506082005 | 44 | 226 | 2.0 | 7.0 | 0.00 | 0.00 | 0.00 | 65 | 1016.5 |
| 20260506081006 | 44 | 226 | 2.0 | 7.0 | 0.00 | 0.00 | 0.00 | 65 | 1016.5 |
| 20260506073005 | 44 | 226 | 2.0 | 7.0 | 0.00 | 0.00 | 0.00 | 65 | 1016.5 |
| 20260506071005 | 44 | 226 | 2.0 | 7.0 | 0.00 | 0.00 | 0.00 | 65 | 1016.5 |
| 20260506061005 | 44 | 226 | 2.0 | 7.0 | 0.00 | 0.00 | 0.00 | 65 | 1016.5 |
| 20260506051005 | 44 | 226 | 2.0 | 7.0 | 0.00 | 0.00 | 0.00 | 65 | 1016.5 |
| 20260506044005 | 44 | 226 | 2.0 | 7.0 | 0.00 | 0.00 | 0.00 | 65 | 1016.5 |
| 20260506043006 | 44 | 226 | 2.0 | 7.0 | 0.00 | 0.00 | 0.00 | 65 | 1016.5 |
| 20260506041005 | 44 | 226 | 2.0 | 7.0 | 0.00 | 0.00 | 0.00 | 65 | 1016.5 |
| 20260506040005 | 44 | 226 | 2.0 | 7.0 | 0.00 | 0.00 | 0.00 | 65 | 1016.5 |
| 20260506034005 | 44 | 226 | 2.0 | 7.0 | 0.00 | 0.00 | 0.00 | 65 | 1016.5 |
| 20260506033006 | 44 | 226 | 2.0 | 7.0 | 0.00 | 0.00 | 0.00 | 65 | 1016.5 |
| 20260506032005 | 44 | 226 | 2.0 | 7.0 | 0.00 | 0.00 | 0.00 | 65 | 1016.5 |
| 20260506031006 | 44 | 226 | 2.0 | 7.0 | 0.00 | 0.00 | 0.00 | 65 | 1016.5 |
| 20260506030006 | 44 | 226 | 2.0 | 7.0 | 0.00 | 0.00 | 0.00 | 65 | 1016.5 |
| 20260506025005 | 44 | 226 | 2.0 | 7.0 | 0.00 | 0.00 | 0.00 | 65 | 1016.5 |
| 20260506024005 | 44 | 226 | 2.0 | 7.0 | 0.00 | 0.00 | 0.00 | 65 | 1016.5 |
| 20260506023005 | 44 | 226 | 2.0 | 7.0 | 0.00 | 0.00 | 0.00 | 65 | 1016.5 |
| 20260506022005 | 44 | 226 | 2.0 | 7.0 | 0.00 | 0.00 | 0.00 | 65 | 1016.5 |
| 20260506015005 | 44 | 226 | 2.0 | 7.0 | 0.00 | 0.00 | 0.00 | 65 | 1016.5 |
| 20260506014005 | 44 | 226 | 2.0 | 7.0 | 0.00 | 0.00 | 0.00 | 65 | 1016.5 |
| 20260506013005 | 44 | 226 | 2.0 | 7.0 | 0.00 | 0.00 | 0.00 | 65 | 1016.5 |
| 20260506012005 | 44 | 226 | 2.0 | 7.0 | 0.00 | 0.00 | 0.00 | 65 | 1016.5 |
| 20260506011005 | 44 | 226 | 2.0 | 7.0 | 0.00 | 0.00 | 0.00 | 65 | 1016.5 |
| 20260506010005 | 44 | 226 | 2.0 | 7.0 | 0.00 | 0.00 | 0.00 | 65 | 1016.5 |
| 20260506005006 | 44 | 226 | 2.0 | 7.0 | 0.00 | 0.00 | 0.00 | 65 | 1016.5 |
| 20260506004005 | 44 | 226 | 2.0 | 7.0 | 0.00 | 0.00 | 0.00 | 65 | 1016.5 |
| 20260506003005 | 44 | 226 | 2.0 | 7.0 | 0.00 | 0.00 | 0.00 | 65 | 1016.5 |
| 20260506002005 | 44 | 226 | 2.0 | 7.0 | 0.00 | 0.00 | 0.00 | 65 | 1016.5 |
| 20260506001005 | 44 | 226 | 2.0 | 7.0 | 0.00 | 0.00 | 0.00 | 65 | 1016.5 |
| 20260506000005 | 44 | 226 | 2.0 | 7.0 | 0.00 | 0.00 | 0.00 | 65 | 1016.5 |
| 20260505235005 | 44 | 226 | 2.0 | 7.0 | 0.00 | 0.00 | 0.00 | 65 | 1016.5 |
| 20260505234005 | 44 | 226 | 2.0 | 7.0 | 0.00 | 0.00 | 0.00 | 65 | 1016.5 |
| 20260505233007 | 44 | 226 | 2.0 | 7.0 | 0.00 | 0.00 | 0.00 | 65 | 1016.5 |
| 20260505232005 | 44 | 226 | 2.0 | 7.0 | 0.00 | 0.00 | 0.00 | 65 | 1016.5 |
| 20260505231005 | 44 | 226 | 2.0 | 7.0 | 0.00 | 0.00 | 0.00 | 65 | 1016.5 |
| 20260505230005 | 44 | 226 | 2.0 | 7.0 | 0.00 | 0.00 | 0.00 | 65 | 1016.5 |
| 20260505224005 | 44 | 226 | 2.0 | 7.0 | 0.00 | 0.00 | 0.00 | 65 | 1016.5 |
| 20260505223005 | 44 | 226 | 2.0 | 7.0 | 0.00 | 0.00 | 0.00 | 65 | 1016.5 |
| 20260505221005 | 44 | 226 | 2.0 | 7.0 | 0.00 | 0.00 | 0.00 | 65 | 1016.5 |
| 20260505220006 | 44 | 226 | 2.0 | 7.0 | 0.00 | 0.00 | 0.00 | 65 | 1016.5 |
| 20260505214005 | 44 | 226 | 2.0 | 7.0 | 0.00 | 0.00 | 0.00 | 65 | 1016.5 |
| 20260505213005 | 44 | 226 | 2.0 | 7.0 | 0.00 | 0.00 | 0.00 | 65 | 1016.5 |
| 20260505212005 | 44 | 226 | 2.0 | 7.0 | 0.00 | 0.00 | 0.00 | 65 | 1016.5 |
| 20260505210006 | 44 | 226 | 2.0 | 7.0 | 0.00 | 0.00 | 0.00 | 65 | 1016.5 |
| 20260505205005 | 44 | 226 | 2.0 | 7.0 | 0.00 | 0.00 | 0.00 | 65 | 1016.5 |
| 20260505204005 | 44 | 226 | 2.0 | 7.0 | 0.00 | 0.00 | 0.00 | 65 | 1016.5 |
| 20260505203005 | 44 | 226 | 2.0 | 7.0 | 0.00 | 0.00 | 0.00 | 65 | 1016.5 |
| 20260505202005 | 44 | 226 | 2.0 | 7.0 | 0.00 | 0.00 | 0.00 | 65 | 1016.5 |
| 20260505200005 | 44 | 226 | 2.0 | 7.0 | 0.00 | 0.00 | 0.00 | 65 | 1016.5 |
| 20260505195005 | 44 | 226 | 2.0 | 7.0 | 0.00 | 0.00 | 0.00 | 65 | 1016.5 |
| 20260505194004 | 44 | 226 | 2.0 | 7.0 | 0.00 | 0.00 | 0.00 | 65 | 1016.5 |
| 20260505193005 | 44 | 226 | 2.0 | 7.0 | 0.00 | 0.00 | 0.00 | 65 | 1016.5 |
| 20260505192005 | 44 | 226 | 2.0 | 7.0 | 0.00 | 0.00 | 0.00 | 65 | 1016.5 |
| 20260505191005 | 44 | 226 | 2.0 | 7.0 | 0.00 | 0.00 | 0.00 | 65 | 1016.5 |
| 20260505190005 | 44 | 226 | 2.0 | 7.0 | 0.00 | 0.00 | 0.00 | 65 | 1016.5 |
| 20260505185005 | 44 | 226 | 2.0 | 7.0 | 0.00 | 0.00 | 0.00 | 65 | 1016.5 |
| 20260505181005 | 44 | 226 | 2.0 | 7.0 | 0.00 | 0.00 | 0.00 | 65 | 1016.5 |
| 20260505180005 | 44 | 226 | 2.0 | 7.0 | 0.00 | 0.00 | 0.00 | 65 | 1016.5 |
| 20260505174005 | 44 | 226 | 2.0 | 7.0 | 0.00 | 0.00 | 0.00 | 65 | 1016.5 |
| 20260505173005 | 44 | 203 | 1.0 | 4.0 | 0.00 | 0.00 | 0.00 | 65 | 1016.8 |
| 20260505172005 | 44 | 337 | 2.0 | 2.0 | 0.00 | 0.00 | 0.00 | 66 | 1016.6 |
| 20260505171005 | 44 | 68 | 2.0 | 4.0 | 0.00 | 0.00 | 0.00 | 66 | 1016.9 |
| 20260505170005 | 44 | 78 | 3.0 | 6.0 | 0.00 | 0.00 | 0.00 | 66 | 1016.8 |
| 20260505165005 | 44 | 356 | 2.0 | 4.0 | 0.00 | 0.00 | 0.00 | 66 | 1017.2 |
| 20260505164005 | 45 | 299 | 4.0 | 6.0 | 0.00 | 0.00 | 0.00 | 63 | 1017.1 |